[keps] orb12222.2l.amsat

Ray Hoad ray.hoad at mypbmail.com
Thu Aug 9 21:24:57 PDT 2012


SB KEPS @ AMSAT  $ORB12222.N
2Line Orbital Elements 12222.AMSAT

HR AMSAT ORBITAL ELEMENTS FOR AMATEUR SATELLITES IN NASA FORMAT
FROM WA5QGD FORT WORTH,TX August 9, 2012
Send SUBSCRIBE KEPS/UNSUBSCRIBE KEPS to majordomo at amsat.org only
BID: ORB12222.N

DECODE 2-LINE ELSETS WITH THE FOLLOWING KEY:
1 AAAAAU 00  0  0 BBBBB.BBBBBBBB  .CCCCCCCC  00000-0  00000-0 0  DDDZ
2 AAAAA EEE.EEEE FFF.FFFF GGGGGGG HHH.HHHH III.IIII JJ.JJJJJJJJKKKKKZ
KEY: A-CATALOGNUM B-EPOCHTIME C-DECAY D-ELSETNUM E-INCLINATION F-RAAN
G-ECCENTRICITY H-ARGPERIGEE I-MNANOM J-MNMOTION K-ORBITNUM Z-CHECKSUM

TO ALL RADIO AMATEURS BT

AO-07
1 07530U 74089B   12221.57755816 -.00000027  00000-0  10000-3 0 04523
2 07530 101.4060 216.7721 0011798 178.8416 181.2686 12.53590655726611
FO-29
1 24278U 96046B   12221.83684200  .00000105  00000-0  14614-3 0 09206
2 24278 098.5859 315.6083 0349638 252.9973 103.2581 13.52986659789070
SO-33
1 25509U 98061B   12221.81127433  .00000149  00000-0  16384-4 0  2940
2 25509 031.4367 035.8722 0352678 303.7428 053.0050 14.28798715720185
RS-22
1 27939U 03042A   12222.57904691  .00000601  00000-0  12285-3 0  6152
2 27939 097.8098 060.6491 0014511 094.9133 265.3734 14.64089908473698
VO-52
1 28650U 05017B   12222.69407555  .00000818  00000-0  10609-3 0  1767
2 28650 097.5940 251.0278 0025346 223.6129 136.3081 14.83088858392905
HO-68
1 36122U 09072B   12222.80064145 -.00000044  00000-0  00000 0 0  7232
2 36122 100.3577 281.0567 0007511 349.3332 010.7623 13.16297325127445
UO-11
1 14781U 84021B   12222.85194733  .00000360  00000-0  53929-4 0  9435
2 14781 097.9497 281.8918 0008233 213.1677 146.9005 14.80515367527872
AO-16
1 20439U 90005D   12222.88682560  .00000153  00000-0  72744-4 0  5302
2 20439 098.4335 164.7654 0011323 005.0068 355.1223 14.32072631177683
LO-19
1 20442U 90005G   12222.90169079  .00000137  00000-0  66310-4 0  4600
2 20442 098.3997 167.5986 0012055 356.4848 003.6242 14.32289772177874
AO-27
1 22825U 93061C   12221.88286324  .00000106  00000-0  58492-4 0 01820
2 22825 098.5775 163.8846 0009058 121.7358 238.4706 14.29475819984008
IO-26
1 22826U 93061D   12221.87363162  .00000097  00000-0  54549-4 0 09316
2 22826 098.5723 164.2332 0009586 115.0980 245.1195 14.29750621984138
GO-32
1 25397U 98043D   12221.49007637  .00000039  00000-0  35557-4 0 08455
2 25397 098.3663 197.6379 0002133 113.9258 246.2146 14.23286032731460
NO-44
1 26931U 01043C   12222.83271581  .00000300  00000-0  14855-3 0  1084
2 26931 067.0543 342.0769 0007238 253.4039 106.6271 14.29819970566915
SO-50
1 27607U 02058C   12222.75771421  .00000655  00000-0  11964-3 0  8337
2 27607 064.5580 131.9310 0080014 237.8656 121.4655 14.72457052517857
CO-55
1 27844U 03031E   12221.58890935  .00000201  00000-0  11280-3 0  4350
2 27844 098.7040 229.2082 0010721 071.6143 288.6200 14.21052461472334
CO-57
1 27848U 03031J   12222.58769301  .00000156  00000-0  92246-4 0  3863
2 27848 098.7119 229.5505 0010701 074.9778 285.2576 14.20800860472417
AO-51
1 28375U 04025K   12222.47820598  .00000098  00000-0  42234-4 0  3369
2 28375 098.1525 185.2897 0082580 239.8563 119.4432 14.40972506426448
CP3
1 31129U 07012N   12222.58537780  .00000851  00000-0  20306-3 0  2337
2 31129 097.8863 227.2239 0100185 317.6774 041.6715 14.53160172281731
CO-65
1 32785U 08021C   12221.66867577  .00001372  00000-0  17464-3 0 03831
2 32785 097.7944 281.4713 0013327 248.2717 111.7084 14.83099109231541
PRISM
1 33493U 09002B   12222.86421339  .00003096  00000-0  37622-3 0  9595
2 33493 098.1784 004.7342 0019868 121.0427 239.2744 14.84132011191715
SOHLA-1
1 33496U 09002E   12221.92562073  .00000281  00000-0  55093-4 0 08196
2 33496 098.1088 333.3252 0005715 228.8080 131.2634 14.70010877189999
SO-67
1 35870U 09049F   12222.89305648  .00004525  00000-0  18843-3 0  2184
2 35870 097.2286 256.7544 0002461 030.2980 083.7179 15.24214103160798
TISAT-1
1 36799U 10035E   12222.74558919  .00001808  00000-0  23374-3 0  2352
2 36799 098.0598 299.4695 0014923 004.8490 355.2863 14.82120054112422
STUDSAT
1 36801U 10035G   12221.91510794  .00005207  00000-0  61976-3 0 04611
2 36801 098.0660 299.5900 0012734 353.1749 006.9293 14.84750214112348
FO-69
1 37227U 0        12179.46825757  .00000166  00000-0  31335-4 0 02192
2 37227 071.9703 289.2712 0018108 298.3339 061.6016 14.77092260037611
FO-70
1 37380U 0        12179.47554455  .00000208  00000-0  37493-4 0 02230
2 37380 071.9743 289.8278 0018623 295.0880 064.8372 14.76843679037500
ALMASAT-1
1 38078U 12006B   12222.39387379  .00016813  00000-0  46424-3 0  4596
2 38078 069.4880 196.5988 0751909 182.2093 177.5651 14.10849374 25050
XATCOBEO
1 38082U 12006F   12221.95299609  .00040858  00000-0  98044-3 0 04591
2 38082 069.4862 194.2561 0721762 180.9884 178.9988 14.20006668025076
NOAA-10
1 16969U 86073A   12222.70856501 -.00000030  00000-0  53149-5 0   213
2 16969 098.5780 250.8048 0013119 078.8061 281.4590 14.27567928347501
NOAA-11
1 19531U 88089A   12222.74472483 -.00000127  00000-0 -43422-4 0   161
2 19531 098.7312 306.7756 0012069 071.9309 288.3196 14.14975112232089
NOAA-12
1 21263U 91032A   12222.88332183  .00000055  00000-0  41831-4 0  5025
2 21263 098.7264 244.2918 0014754 046.9266 313.3146 14.25511095104207
MET-3/5
1 21655U 91056A   12222.78235332 -.00000197  00000-0 -54437-3 0  4767
2 21655 082.5566 114.3336 0013360 183.7087 176.3938 13.17042721  8947
MET-2/21
1 22782U 93055A   12221.87137034  .00000068  00000-0  47805-4 0 04968
2 22782 082.5500 350.7063 0022855 008.9508 351.2071 13.83686963956450
OKEAN-4
1 23317U 94066A   12221.90009216  .00001204  00000-0  14165-3 0 00028
2 23317 082.5421 341.9170 0021440 173.0214 187.1304 14.83883919962627
NOAA-14
1 23455U 94089A   12222.90006149  .00000090  00000-0  70757-4 0  9828
2 23455 098.8256 305.7208 0009628 158.3243 201.8334 14.13866132908389
NOAA-15
1 25338U 98030A   12221.64448956  .00000222  00000-0  11335-3 0 03597
2 25338 098.6944 208.0701 0010013 321.3497 038.6961 14.25103740740321
RESURS
1 25394U 98043A   12221.94909267  .00000003  00000-0  18763-4 0 01760
2 25394 098.3250 207.4203 0002393 079.0583 281.0868 14.24291531731915
FENGYUN1
1 25730U 99025A   12221.95175150  .00000785  00000-0  47172-3 0 06770
2 25730 098.8481 180.0260 0017344 211.2101 148.8039 14.09695817682044
OKEAN-0
1 25860U 99039A   12221.92981205  .00000469  00000-0  78359-4 0 07257
2 25860 097.9412 183.5102 0001860 069.1479 290.9929 14.74259997702349
NOAA-16
1 26536U 00055A   12221.65853715  .00000284  00000-0  17756-3 0 08475
2 26536 099.0900 264.5831 0009856 297.7180 062.2990 14.12768456612441
NOAA-17
1 27453U 02032A   12222.75802113  .00000095  00000-0  58714-4 0  7951
2 27453 098.3338 247.0842 0011825 004.9182 355.2099 14.24467758526380
NOAA-18
1 28654U 05018A   12222.71970645  .00000370  00000-0  22817-3 0  2779
2 28654 099.0508 181.2664 0014524 008.0146 352.1241 14.11684408372110
NOAA-19
1 33591U 09005A   12222.73958278  .00000486  00000-0  29260-3 0  4662
2 33591 098.8653 161.8708 0013264 228.4095 131.5936 14.11371569180565
HUBBLE
1 20580U 90037B   12222.92411702  .00001816  00000-0  12049-3 0   502
2 20580 028.4700 151.8440 0003341 264.1374 095.9116 15.02677623 22823
ISS
1 25544U 98067A   12223.04705280  .00010706  00000-0  16320-3 0   895
2 25544 051.6415 213.3468 0001411 041.6981 064.8786 15.55053409786396
CO-58
1 28895U 05043F   12222.58353263  .00000686  00000-0  14969-3 0  2465
2 28895 097.9039 086.4907 0017174 347.4111 012.6686 14.60701140361458
FALCON
1 30776U 07006E   12221.70096543  .00004492  00000-0  28929-3 0 04243
2 30776 035.4342 316.0074 0001521 108.9406 251.1477 15.07902286298189
MAST
1 31126U 07012K   12221.92915517  .00000613  00000-0  14720-3 0 05274
2 31126 097.8738 229.9464 0093058 306.9403 052.3308 14.54221016281933
CAPE1
1 31130U 07012P   12221.94016685  .00000870  00000-0  20798-3 0 05412
2 31130 097.8816 226.3098 0099973 320.5151 038.8790 14.53020599281434
COMPASS
1 32787U 08021E   12221.72581563  .00001987  00000-0  24355-3 0 03781
2 32787 097.7954 281.8934 0014012 248.2585 111.7152 14.84185808231604
AAUSAT2
1 32788U 08021F   12221.61638226  .00002553  00000-0  30868-3 0 03707
2 32788 097.7970 282.1972 0013310 247.8545 112.1258 14.84524851231618
DO-64
1 32789U 08021G   12221.67637513  .00004043  00000-0  46646-3 0 03866
2 32789 097.8082 284.4828 0013513 242.9135 117.0700 14.86140648231677
CO-66
1 32791U 08021J   12221.73666672  .00001910  00000-0  23788-3 0 03697
2 32791 097.7940 281.6030 0014321 244.8068 115.1667 14.83571748231532
RS-30
1 32953U 08025A   12222.65348310  .00000010  00000-0  00000 0 0   380
2 32953 082.5008 261.8927 0018596 187.0819 173.0014 12.43026503191200
PHARMSAT
1 35002U 09028B   12222.87087790  .01113097  69108-5  64460-3 0   595
2 35002 040.4447 077.8011 0014903 293.2950 066.6018 16.17587914182902
METEOR-M
1 35865U 09049A   12222.77108838 -.00000006  00000-0  16913-4 0  6684
2 35865 098.6508 276.0803 0001640 258.2559 101.8429 14.21867039150213
RS-38
1 35869U 09049E   12222.71387992  .00000043  00000-0  39247-4 0  6744
2 35869 098.6460 276.0110 0003792 257.8280 102.2467 14.22081686150226
JUGNU
1 37839U 11058B   12221.81644575  .00000619  00000-0  19019-3 0 02041
2 37839 019.9627 039.3908 0019672 081.3844 278.8706 14.12071297042694
SRMSAT
1 37841U 11058D   12221.87182326  .00000264  00000-0  00000 0 0  2021
2 37841 019.9720 044.9607 0011595 047.2449 312.8993 14.10153237 42631
RAX-2
1 37853U 11061D   12221.91088141  .00004243  00000-0  34040-3 0 02603
2 37853 101.7098 286.1113 0246265 200.5342 158.5823 14.80326871042207
AUBIESAT
1 37854U 11061E   12222.86516696  .00005162  00000-0  40483-3 0  2531
2 37854 101.7099 287.8187 0247306 196.9647 162.3176 14.80747547 42336
HRBE
1 37855U 11061F   12222.88431804  .00004773  00000-0  37694-3 0  2505
2 37855 101.7114 287.7847 0247318 197.1507 162.1244 14.80585841 42339
RS-39
1 38051U 11062C   12222.85105324  .00011021  00000-0  44580-3 0  5922
2 38051 051.6375 263.9678 0013430 228.6761 112.7608 15.25123708 30158
E-STAR
1 38079U 12006C   12222.34308485  .00033076  00000-0  80205-3 0  4149
2 38079 069.4844 193.9110 0730368 180.8450 179.1500 14.17990179 25111
GOLIAT
1 38085U 12006J   12222.30168860  .00032774  00000-0  79107-3 0  3831
2 38085 069.4905 194.4478 0735699 181.2098 178.7275 14.16949861 25096
HORYU-2
1 38340U 12025D   12222.87145132  .00001269  00000-0  21939-3 0   859
2 38340 098.1753 162.7290 0013300 154.9150 205.2731 14.70083450 12366
RS-40
1 38736U 12041D   12222.60626955  .00000010  00000-0  00000 0 0   185
2 38736 082.4813 349.3858 0017722 288.1690 071.7460 12.42645811  1547
/EX




More information about the Keps mailing list